sat.trackr.live / text

‹ back to catalog

YAOGAN-30 07A

NORAD 45460 · 2020-021A

PAYLOAD ACTIVE UNKNOWN

§ Identity

Operator
Country
PRC
Launch date
2020-03-24
Launch site
XICLF
Launch vehicle
Mass (kg)
RCS (m²)

External: N2YO · Heavens-Above · Gunter

§ Orbital elements

Epoch: 2026-05-25T01:02:47.433984Z

Period
95.83 min
Inclination
34.9961°
Eccentricity
0.0003399
Mean motion
15.02582649 rev/d
Perigee alt
556.6 km
Apogee alt
561.3 km
Semi-major
6,937.1 km
B*
1.9271e-4
RAAN
351.9297°
Arg perigee
196.7070°
Mean anomaly
163.3526°
Rev number
33,707

§ Raw data

YAOGAN-30 07A1 45460U 20021A   26145.04360456  .00002588  00000+0  19271-3 0  99952 45460  34.9961 351.9297 0003399 196.7070 163.3526 15.02582649337071

JSON: /api/v1/satellites/45460 · /tle

For live sub-satellite position, see the globe view (requires WebGL).

§ Visibility from observer

Set your observer location to see the next 7 days of passes ≥ 10°. The values pass through the URL so the page stays shareable.

No JS? Fill the form by hand. The geolocation button needs JavaScript.